timestamp,surface_pressure_avg,surface_temp_avg,battery_voltage,lat,long
2020-08-24 00:09:01+00:00,249.2364,19.2,12.81,47.84626,-54.09684
2020-08-24 00:19:01+00:00,253.6764,19.2,12.73,47.84626,-54.09684
2020-08-24 00:29:01+00:00,257.8814,19.2,12.73,47.84626,-54.09684
2020-08-24 00:39:01+00:00,262.6847,19.15,12.73,47.84626,-54.09684
2020-08-24 00:49:01+00:00,271.5364,19.1,12.73,47.84626,-54.09684
2020-08-24 00:59:01+00:00,277.9431,18.97,12.73,47.84626,-54.09684
2020-08-24 01:09:01+00:00,282.688,18.85,12.73,47.84626,-54.09684
2020-08-24 01:19:01+00:00,288.4847,18.88,12.73,47.84626,-54.09684
2020-08-24 01:29:01+00:00,301.1597,18.89,12.73,47.84626,-54.09684
2020-08-24 01:39:01+00:00,310.658,18.89,12.73,47.84626,-54.09684
2020-08-24 01:49:01+00:00,315.5514,18.89,12.73,47.84626,-54.09684
2020-08-24 01:59:01+00:00,321.6929,18.9,12.73,47.84626,-54.09684
2020-08-24 02:09:01+00:00,331.2530000000001,18.9,12.73,47.84626,-54.09684
2020-08-24 02:19:01+00:00,335.6163,18.9,12.73,47.84626,-54.09684
2020-08-24 02:29:01+00:00,336.3547,18.9,12.73,47.84626,-54.09684
2020-08-24 02:39:01+00:00,338.913,18.9,12.73,47.84626,-54.09684
2020-08-24 02:49:01+00:00,343.1429,18.8,12.73,47.84626,-54.09684
2020-08-24 02:59:01+00:00,343.0163,18.8,12.73,47.84626,-54.09684
2020-08-24 03:09:01+00:00,342.6562,18.86,12.73,47.84626,-54.09684
2020-08-24 03:19:01+00:00,346.7114,18.89,12.73,47.84626,-54.09684
2020-08-24 03:29:01+00:00,348.7546,18.9,12.73,47.84626,-54.09684
2020-08-24 03:39:01+00:00,348.1796,18.9,12.73,47.84626,-54.09684
2020-08-24 03:49:01+00:00,347.9113,18.9,12.73,47.84626,-54.09684
2020-08-24 03:59:01+00:00,348.8846,18.9,12.73,47.84626,-54.09684
2020-08-24 04:09:01+00:00,347.9246,18.9,12.73,47.84626,-54.09684
2020-08-24 04:19:01+00:00,342.3579,18.9,12.73,47.84626,-54.09684
2020-08-24 04:29:01+00:00,339.043,18.95,12.73,47.84626,-54.09684
2020-08-24 04:39:01+00:00,338.6880000000001,18.94,12.73,47.84626,-54.09684
2020-08-24 04:49:01+00:00,337.9763,18.97,12.73,47.84626,-54.09684
2020-08-24 04:59:01+00:00,335.6613,19.0,12.73,47.84626,-54.09684
2020-08-24 05:09:01+00:00,332.5680000000001,19.05,12.73,47.84626,-54.09684
2020-08-24 05:19:01+00:00,328.5147,19.09,12.73,47.84626,-54.09684
2020-08-24 05:29:01+00:00,322.0764,19.1,12.73,47.84626,-54.09684
2020-08-24 05:39:01+00:00,316.668,19.1,12.73,47.84626,-54.09684
2020-08-24 05:49:01+00:00,308.953,19.12,12.73,47.84626,-54.09684
2020-08-24 05:59:01+00:00,297.0063,19.18,12.73,47.84626,-54.09684
2020-08-24 06:09:01+00:00,286.078,19.2,12.73,47.84626,-54.09684
2020-08-24 06:19:01+00:00,277.5547,19.2,12.73,47.84626,-54.09684
2020-08-24 06:29:01+00:00,266.4847,19.2,12.73,47.84626,-54.09684
2020-08-24 06:39:01+00:00,253.1531,19.2,12.73,47.84626,-54.09684
2020-08-24 06:49:01+00:00,244.1647,19.2,12.73,47.84626,-54.09684
2020-08-24 06:59:01+00:00,236.1381,19.2,12.73,47.84626,-54.09684
2020-08-24 07:09:01+00:00,224.4798,19.2,12.73,47.84626,-54.09684
2020-08-24 07:19:01+00:00,212.7747,19.2,12.65,47.84626,-54.09684
2020-08-24 07:29:01+00:00,205.8831,19.28,12.65,47.84626,-54.09684
2020-08-24 07:39:01+00:00,199.0448,19.3,12.65,47.84626,-54.09684
2020-08-24 07:49:01+00:00,188.1415,19.3,12.65,47.84626,-54.09684
2020-08-24 07:59:01+00:00,180.8314,19.3,12.65,47.84626,-54.09684
2020-08-24 08:09:01+00:00,179.1348,19.3,12.65,47.84626,-54.09684
2020-08-24 08:19:01+00:00,176.5414,19.3,12.65,47.84626,-54.09684
2020-08-24 08:29:01+00:00,173.2215,19.3,12.65,47.84626,-54.09684
2020-08-24 08:39:01+00:00,170.3499,19.29,12.65,47.84626,-54.09684
2020-08-24 08:49:01+00:00,169.8932,19.2,12.65,47.84626,-54.09684
2020-08-24 08:59:01+00:00,170.8032,19.2,12.65,47.84626,-54.09684
2020-08-24 09:09:01+00:00,170.3465,19.2,12.65,47.84626,-54.09684
2020-08-24 09:19:01+00:00,171.4848,19.2,12.65,47.84626,-54.09684
2020-08-24 09:29:01+00:00,174.5298,19.19,12.65,47.84626,-54.09684
2020-08-24 09:39:01+00:00,178.6381,19.17,12.65,47.84626,-54.09684
2020-08-24 09:49:01+00:00,181.2865,19.15,12.65,47.84626,-54.09684
2020-08-24 09:59:01+00:00,184.3781,19.15,12.65,47.84626,-54.09684
2020-08-24 10:09:01+00:00,191.0498,19.1,12.65,47.84626,-54.09684
2020-08-24 10:19:01+00:00,194.8098,19.1,12.65,47.84626,-54.09684
2020-08-24 10:29:01+00:00,197.7615,19.1,12.65,47.84626,-54.09684
2020-08-24 10:39:01+00:00,202.5215,19.0,12.65,47.84626,-54.09684
2020-08-24 10:49:01+00:00,208.2531,19.0,12.65,47.84626,-54.09684
2020-08-24 10:59:01+00:00,214.2814,19.0,12.65,47.84626,-54.09684
2020-08-24 11:09:01+00:00,216.2097,19.05,12.65,47.84626,-54.09684
2020-08-24 11:19:01+00:00,218.5531,19.06,12.65,47.84626,-54.09684
2020-08-24 11:29:01+00:00,223.1348,19.08,12.65,47.84626,-54.09684
2020-08-24 11:39:01+00:00,226.3681,19.08,12.65,47.84626,-54.09684
2020-08-24 11:49:01+00:00,230.8715,19.0,12.65,47.84626,-54.09684
2020-08-24 11:59:01+00:00,233.0498,19.0,12.65,47.84626,-54.09684
2020-08-24 12:09:01+00:00,236.0747,19.0,12.65,47.84626,-54.09684
2020-08-24 12:19:01+00:00,239.9331,18.92,12.65,47.84626,-54.09684
2020-08-24 12:29:01+00:00,246.6664,18.9,12.65,47.84626,-54.09684
2020-08-24 12:39:01+00:00,253.0814,18.9,12.65,47.84626,-54.09684
2020-08-24 12:49:01+00:00,260.0714,18.9,12.65,47.84626,-54.09684
2020-08-24 12:59:01+00:00,266.3447,18.9,12.65,47.84626,-54.09684
2020-08-24 13:09:01+00:00,274.4464,18.9,12.65,47.84626,-54.09684
2020-08-24 13:19:01+00:00,279.9814,18.79,12.89,47.84626,-54.09684
2020-08-24 13:29:01+00:00,286.9831,18.72,12.89,47.84626,-54.09684
2020-08-24 13:39:01+00:00,293.8814,18.83,12.89,47.84626,-54.09684
2020-08-24 13:49:01+00:00,302.9263,18.79,12.89,47.84626,-54.09684
2020-08-24 13:59:01+00:00,307.0513,18.76,12.89,47.84626,-54.09684
2020-08-24 14:09:01+00:00,317.4246,18.7,12.89,47.84626,-54.09684
2020-08-24 14:19:01+00:00,325.9963,18.68,13.29,47.84626,-54.09684
2020-08-24 14:29:01+00:00,336.0363,18.6,13.29,47.84626,-54.09684
2020-08-24 14:39:01+00:00,338.843,18.6,13.29,47.84626,-54.09684
2020-08-24 14:49:01+00:00,342.8781,18.6,13.29,47.84626,-54.09684
2020-08-24 14:59:01+00:00,346.8947,18.57,13.29,47.84626,-54.09684
2020-08-24 15:09:01+00:00,349.0814,18.6,13.29,47.84626,-54.09684
2020-08-24 15:19:01+00:00,347.8096,18.6,14.0,47.84626,-54.09684
2020-08-24 15:29:01+00:00,348.8879,18.6,14.0,47.84626,-54.09684
2020-08-24 15:39:01+00:00,352.7797,18.6,14.0,47.84626,-54.09684
2020-08-24 15:49:01+00:00,352.6995,18.67,14.0,47.84626,-54.09684
2020-08-24 15:59:01+00:00,352.0912,18.7,14.0,47.84626,-54.09684
2020-08-24 16:09:01+00:00,355.7213,18.7,14.0,47.84626,-54.09684
2020-08-24 16:19:01+00:00,356.0648,18.71,14.24,47.84626,-54.09684
2020-08-24 16:29:01+00:00,353.7646,18.79,14.24,47.84626,-54.09684
2020-08-24 16:39:01+00:00,352.0113,18.8,14.24,47.84626,-54.09684
2020-08-24 16:49:01+00:00,352.5629,18.83,14.24,47.84626,-54.09684
2020-08-24 16:59:01+00:00,350.11300000000006,18.89,14.24,47.84626,-54.09684
2020-08-24 17:09:01+00:00,345.0197,18.9,14.24,47.84626,-54.09684
2020-08-24 17:19:01+00:00,342.0397,18.9,14.32,47.84626,-54.09684
2020-08-24 17:29:01+00:00,337.3397,18.9,14.32,47.84626,-54.09684
2020-08-24 17:39:01+00:00,329.7562,18.98,14.32,47.84626,-54.09684
2020-08-24 17:49:01+00:00,326.2696,19.0,14.32,47.84626,-54.09684
2020-08-24 17:59:01+00:00,320.843,19.0,14.32,47.84626,-54.09684
2020-08-24 18:09:01+00:00,312.1546,19.0,14.32,47.84626,-54.09684
2020-08-24 18:19:01+00:00,301.8113,19.0,13.92,47.84626,-54.09684
2020-08-24 18:29:01+00:00,295.8597,19.0,13.92,47.84626,-54.09684
2020-08-24 18:39:01+00:00,287.7364,19.0,13.92,47.84626,-54.09684
2020-08-24 18:49:01+00:00,276.313,19.0,13.92,47.84626,-54.09684
2020-08-24 18:59:01+00:00,266.1864,19.0,13.92,47.84626,-54.09684
2020-08-24 19:09:01+00:00,258.3764,19.07,13.92,47.84626,-54.09684
2020-08-24 19:19:01+00:00,247.5998,19.1,13.84,47.84626,-54.09684
2020-08-24 19:29:01+00:00,235.8897,19.1,13.84,47.84626,-54.09684
2020-08-24 19:39:01+00:00,228.0298,19.16,13.84,47.84626,-54.09684
2020-08-24 19:49:01+00:00,220.6281,19.18,13.84,47.84626,-54.09684
2020-08-24 19:59:01+00:00,212.0931,19.19,13.84,47.84626,-54.09684
2020-08-24 20:09:01+00:00,205.2264,19.19,13.84,47.84626,-54.09684
2020-08-24 20:19:01+00:00,199.4915,19.2,13.68,47.84626,-54.09684
2020-08-24 20:29:01+00:00,193.0565,19.3,13.68,47.84626,-54.09684
2020-08-24 20:39:01+00:00,188.8698,19.3,13.68,47.84626,-54.09684
2020-08-24 20:49:01+00:00,186.7081,19.27,13.68,47.84626,-54.09684
2020-08-24 20:59:01+00:00,183.7465,19.25,13.68,47.84626,-54.09684
2020-08-24 21:09:01+00:00,181.0515,19.25,13.68,47.84626,-54.09684
2020-08-24 21:19:01+00:00,183.7914,19.25,13.68,47.84626,-54.09684
2020-08-24 21:29:01+00:00,185.5165,19.27,13.68,47.84626,-54.09684
2020-08-24 21:39:01+00:00,183.7248,19.29,13.68,47.84626,-54.09684
2020-08-24 21:49:01+00:00,185.2981,19.29,13.68,47.84626,-54.09684
2020-08-24 21:59:01+00:00,190.9731,19.29,13.68,47.84626,-54.09684
2020-08-24 22:09:01+00:00,193.5531,19.3,13.68,47.84626,-54.09684
2020-08-24 22:19:01+00:00,192.4865,19.29,13.37,47.84626,-54.09684
2020-08-24 22:29:01+00:00,197.0181,19.27,13.37,47.84626,-54.09684
2020-08-24 22:39:01+00:00,203.2081,19.2,13.37,47.84626,-54.09684
2020-08-24 22:49:01+00:00,205.0297,19.2,13.37,47.84626,-54.09684
2020-08-24 22:59:01+00:00,208.3281,19.21,13.37,47.84626,-54.09684
2020-08-24 23:09:01+00:00,213.1864,19.28,13.37,47.84626,-54.09684
2020-08-24 23:19:01+00:00,214.8682,19.29,12.97,47.84626,-54.09684
2020-08-24 23:29:01+00:00,214.4431,19.3,12.97,47.84626,-54.09684
2020-08-24 23:39:01+00:00,215.7948,19.28,12.97,47.84626,-54.09684
2020-08-24 23:49:01+00:00,218.3315,19.27,12.97,47.84626,-54.09684
2020-08-24 23:59:01+00:00,219.6647,19.28,12.97,47.84626,-54.09684
